Location: Buckland
(65.9785°N, 161.1281°W)
Time: 10:22:24
(UTC+00:00)

A-11 Canister half - All Passes

Search period start: 30 November 2020 00:00
Search period end: 10 December 2020 00:00
Orbit: 1516 x 1684 km, 47.2° (Epoch: 29 November)

Date Brightness Start Highest point End Pass type
(mag) Time Alt. Az. Time Alt. Az. Time Alt. Az.
30 Nov - 00:28:15 10° SW 00:35:51 26° S 00:43:34 10° ESE daylight
30 Nov - 02:30:59 10° WSW 02:38:16 23° SSW 02:45:36 10° SSE visible
30 Nov - 04:35:54 10° WSW 04:40:10 14° SW 04:44:27 10° SSW visible
30 Nov - 22:04:56 10° S 22:10:52 18° SSE 22:16:55 10° ESE daylight
01 Dec - 00:05:29 10° SW 00:13:03 25° S 00:20:43 10° ESE daylight
01 Dec - 02:08:08 10° WSW 02:15:28 24° SSW 02:22:52 10° SSE visible
01 Dec - 04:12:49 10° WSW 04:17:25 14° SW 04:22:01 10° SSW visible
01 Dec - 21:42:21 10° S 21:48:06 17° SE 21:53:56 10° ESE daylight
01 Dec - 23:42:44 10° SW 23:50:14 25° S 23:57:52 10° ESE daylight
02 Dec - 01:45:17 10° WSW 01:52:39 24° SSW 02:00:07 10° SSE visible
02 Dec - 03:49:47 10° WSW 03:54:39 15° SW 03:59:33 10° S visible
02 Dec - 21:19:48 10° S 21:25:20 17° SE 21:30:57 10° ESE daylight
02 Dec - 23:19:58 10° SW 23:27:26 25° S 23:35:01 10° ESE daylight
03 Dec - 01:22:27 10° WSW 01:29:52 24° SSW 01:37:22 10° SE daylight
03 Dec - 03:26:46 10° WSW 03:31:53 15° SW 03:37:03 10° S visible
03 Dec - 20:57:17 10° S 21:02:35 16° SE 21:07:57 10° ESE daylight
03 Dec - 22:57:14 10° SW 23:04:37 25° SSE 23:12:09 10° ESE daylight
04 Dec - 00:59:37 10° WSW 01:07:04 25° SSW 01:14:35 10° SE daylight
04 Dec - 03:03:46 10° WSW 03:09:08 16° SW 03:14:31 10° S visible
04 Dec - 20:34:47 10° S 20:39:49 15° SE 20:44:56 10° ESE daylight
04 Dec - 22:34:30 10° SW 22:41:49 24° SSE 22:49:17 10° ESE daylight
05 Dec - 00:36:47 10° WSW 00:44:15 25° SSW 00:51:48 10° SE daylight
05 Dec - 02:40:48 10° WSW 02:46:21 17° SW 02:51:57 10° S visible
05 Dec - 20:12:19 10° S 20:17:04 15° SE 20:21:53 10° ESE daylight
05 Dec - 22:11:47 10° SSW 22:19:02 24° SSE 22:26:24 10° ESE daylight
06 Dec - 00:13:58 10° WSW 00:21:26 25° S 00:29:02 10° SE daylight
06 Dec - 02:17:51 10° WSW 02:23:35 17° SW 02:29:22 10° S visible
06 Dec - 19:49:53 10° SSE 19:54:19 14° SE 19:58:49 10° ESE daylight
06 Dec - 21:49:04 10° SSW 21:56:14 24° SSE 22:03:33 10° ESE daylight
06 Dec - 23:51:09 10° WSW 23:58:38 25° S 00:06:14 10° SE daylight
07 Dec - 01:54:55 10° WSW 02:00:49 18° SSW 02:06:47 10° S visible
07 Dec - 19:27:29 10° SSE 19:31:35 13° SE 19:35:43 10° ESE daylight
07 Dec - 21:26:22 10° SSW 21:33:27 23° SSE 21:40:40 10° ESE daylight
07 Dec - 23:28:21 10° WSW 23:35:50 25° S 23:43:27 10° SE daylight
08 Dec - 01:31:59 10° WSW 01:38:02 18° SSW 01:44:09 10° S daylight
08 Dec - 19:05:09 10° SSE 19:08:50 13° SE 19:12:33 10° ESE visible
08 Dec - 21:03:40 10° SSW 21:10:39 23° SSE 21:17:46 10° ESE daylight
08 Dec - 23:05:33 10° SW 23:13:01 25° S 23:20:40 10° SE daylight
09 Dec - 01:09:05 10° WSW 01:15:16 19° SSW 01:21:31 10° S daylight
09 Dec - 18:42:54 10° SSE 18:46:06 12° SE 18:49:20 10° ESE visible
09 Dec - 20:40:59 10° SSW 20:47:51 22° SSE 20:54:53 10° ESE daylight
09 Dec - 22:42:45 10° SW 22:50:13 25° S 22:57:51 10° SE daylight
